• în România
  • Lista ţărilor
  • Pe 7 zile
  • Temperatura apei
  • Hartă satelitară
  • Meteo pe hartă
  • Widget-uri
  • user-avatar
    Intrare

    Meteo pe oră la Mazyr

    Astăzi, 26 Februarie, Luni

    Timp Temperatura Precipitaţii Vânt Presiune Umiditate
    00:00 -17°C° 0 mm 1 m/s 754 mmHg 96%
    01:00 -17°C° 0 mm 1 m/s 754 mmHg 96%
    02:00 -18°C° 0 mm 1 m/s 754 mmHg 97%
    03:00 -18°C° 0 mm 1 m/s 754 mmHg 97%
    04:00 -18°C° 0 mm 1 m/s 754 mmHg 97%
    05:00 -18°C° 0 mm 1 m/s 754 mmHg 97%
    06:00 -18°C° 0 mm 1 m/s 754 mmHg 97%
    07:00 -18°C° 0 mm 1 m/s 754 mmHg 96%
    08:00 -17°C° 0 mm 1 m/s 754 mmHg 96%
    09:00 -16°C° 0 mm 1 m/s 754 mmHg 92%
    10:00 -15°C° 0 mm 1 m/s 754 mmHg 88%
    11:00 -13°C° 0 mm 1 m/s 754 mmHg 83%
    12:00 -13°C° 0 mm 1 m/s 754 mmHg 81%
    13:00 -12°C° 0 mm 1 m/s 754 mmHg 79%
    14:00 -11°C° 0 mm 1 m/s 754 mmHg 76%
    15:00 -12°C° 0 mm 1 m/s 754 mmHg 79%
    16:00 -13°C° 0 mm 1 m/s 754 mmHg 82%
    17:00 -13°C° 0 mm 1 m/s 753 mmHg 84%
    18:00 -14°C° 0 mm 1 m/s 753 mmHg 87%
    19:00 -16°C° 0 mm 1 m/s 753 mmHg 90%
    20:00 -17°C° 0 mm 1 m/s 753 mmHg 92%
    21:00 -17°C° 0 mm 1 m/s 754 mmHg 93%
    22:00 -18°C° 0 mm 1 m/s 754 mmHg 94%
    23:00 -18°C° 0 mm 1 m/s 754 mmHg 95%

    Mâine, 27 Februarie, Marţi

    Timp Temperatura Precipitaţii Vânt Presiune Umiditate
    00:00 -18°C° 0 mm 1 m/s 754 mmHg 95%
    01:00 -19°C° 0 mm 1 m/s 754 mmHg 96%
    02:00 -19°C° 0 mm 1 m/s 754 mmHg 96%
    03:00 -21°C° 0 mm 2 m/s 754 mmHg 97%
    04:00 -21°C° 0 mm 2 m/s 754 mmHg 97%
    05:00 -21°C° 0 mm 2 m/s 754 mmHg 97%
    06:00 -21°C° 0 mm 2 m/s 754 mmHg 97%
    07:00 -21°C° 0 mm 2 m/s 754 mmHg 96%
    08:00 -23°C° 0 mm 3 m/s 754 mmHg 96%
    09:00 -22°C° 0 mm 3 m/s 755 mmHg 93%
    10:00 -19°C° 0 mm 3 m/s 755 mmHg 90%
    11:00 -18°C° 0 mm 3 m/s 755 mmHg 87%
    12:00 -18°C° 0 mm 4 m/s 755 mmHg 86%
    13:00 -17°C° 0 mm 4 m/s 755 mmHg 85%
    14:00 -17°C° 0 mm 5 m/s 754 mmHg 83%
    15:00 -17°C° 0 mm 5 m/s 754 mmHg 84%
    16:00 -17°C° 0 mm 5 m/s 754 mmHg 85%
    17:00 -18°C° 0 mm 5 m/s 754 mmHg 86%
    18:00 -18°C° 0 mm 5 m/s 754 mmHg 86%
    19:00 -18°C° 0 mm 6 m/s 755 mmHg 87%
    20:00 -18°C° 0 mm 6 m/s 755 mmHg 87%
    21:00 -20°C° 0 mm 6 m/s 754 mmHg 86%
    22:00 -20°C° 0 mm 6 m/s 754 mmHg 85%
    23:00 -20°C° 0 mm 6 m/s 754 mmHg 83%

    Poimâine, 28 Februarie, Miercuri

    Timp Temperatura Precipitaţii Vânt Presiune Umiditate
    00:00 -20°C° 0,1 mm 6 m/s 754 mmHg 84%
    01:00 -21°C° 0,1 mm 7 m/s 754 mmHg 85%
    02:00 -21°C° 0,1 mm 7 m/s 754 mmHg 86%
    03:00 -21°C° 0,3 mm 7 m/s 753 mmHg 87%
    04:00 -21°C° 0,3 mm 7 m/s 753 mmHg 88%
    05:00 -21°C° 0,3 mm 7 m/s 753 mmHg 90%
    06:00 -21°C° 0,3 mm 7 m/s 753 mmHg 90%
    07:00 -21°C° 0,3 mm 7 m/s 753 mmHg 90%
    08:00 -21°C° 0,3 mm 7 m/s 753 mmHg 90%
    09:00 -20°C° 0,3 mm 6 m/s 753 mmHg 89%
    10:00 -20°C° 0,3 mm 6 m/s 753 mmHg 88%
    11:00 -18°C° 0,3 mm 6 m/s 753 mmHg 87%
    12:00 -18°C° 0,2 mm 6 m/s 753 mmHg 87%
    13:00 -17°C° 0,2 mm 6 m/s 752 mmHg 87%
    14:00 -17°C° 0,2 mm 5 m/s 752 mmHg 87%
    15:00 -17°C° 0,2 mm 5 m/s 752 mmHg 87%
    16:00 -17°C° 0,2 mm 5 m/s 752 mmHg 88%
    17:00 -17°C° 0,2 mm 5 m/s 752 mmHg 89%
    18:00 -17°C° 0,2 mm 5 m/s 752 mmHg 90%
    19:00 -16°C° 0,2 mm 4 m/s 752 mmHg 90%
    20:00 -17°C° 0,2 mm 4 m/s 753 mmHg 91%
    21:00 -17°C° 0,1 mm 4 m/s 753 mmHg 91%
    22:00 -17°C° 0,1 mm 4 m/s 753 mmHg 91%
    23:00 -18°C° 0,1 mm 4 m/s 753 mmHg 92%

    1 Martie, Joi

    Timp Temperatura Precipitaţii Vânt Presiune Umiditate
    00:00 -17°C° 0,1 mm 3 m/s 753 mmHg 92%
    01:00 -17°C° 0,1 mm 3 m/s 753 mmHg 93%
    02:00 -17°C° 0,1 mm 3 m/s 753 mmHg 93%
    03:00 -17°C° 0 mm 3 m/s 753 mmHg 94%
    04:00 -17°C° 0 mm 3 m/s 753 mmHg 94%
    05:00 -17°C° 0 mm 3 m/s 753 mmHg 95%
    06:00 -17°C° 0,1 mm 3 m/s 753 mmHg 94%
    07:00 -17°C° 0,1 mm 3 m/s 753 mmHg 93%
    08:00 -16°C° 0,1 mm 3 m/s 753 mmHg 93%
    09:00 -15°C° 0 mm 3 m/s 753 mmHg 91%
    10:00 -14°C° 0 mm 3 m/s 753 mmHg 90%
    11:00 -13°C° 0 mm 3 m/s 753 mmHg 89%
    12:00 -14°C° 0,1 mm 4 m/s 753 mmHg 89%
    13:00 -12°C° 0,1 mm 4 m/s 752 mmHg 89%
    14:00 -12°C° 0,1 mm 4 m/s 752 mmHg 90%
    15:00 -12°C° 0,5 mm 4 m/s 752 mmHg 91%
    16:00 -12°C° 0,5 mm 4 m/s 751 mmHg 93%
    17:00 -12°C° 0,5 mm 4 m/s 751 mmHg 94%
    18:00 -12°C° 0,8 mm 4 m/s 751 mmHg 94%
    19:00 -12°C° 0,8 mm 4 m/s 751 mmHg 94%
    20:00 -12°C° 0,8 mm 4 m/s 751 mmHg 94%
    21:00 -12°C° 0,4 mm 4 m/s 750 mmHg 94%
    22:00 -12°C° 0,4 mm 4 m/s 750 mmHg 94%
    23:00 -11°C° 0,4 mm 4 m/s 750 mmHg 94%

    2 Martie, Vineri

    Timp Temperatura Precipitaţii Vânt Presiune Umiditate
    00:00 -11°C° 0,3 mm 4 m/s 750 mmHg 94%
    01:00 -12°C° 0,3 mm 4 m/s 750 mmHg 94%
    02:00 -12°C° 0,3 mm 4 m/s 750 mmHg 94%
    03:00 -12°C° 0,3 mm 3 m/s 750 mmHg 94%
    04:00 -12°C° 0,3 mm 3 m/s 749 mmHg 94%
    05:00 -13°C° 0,3 mm 3 m/s 749 mmHg 94%
    06:00 -13°C° 0,2 mm 3 m/s 749 mmHg 94%
    07:00 -14°C° 0,2 mm 4 m/s 749 mmHg 94%
    08:00 -14°C° 0,2 mm 4 m/s 749 mmHg 94%
    09:00 -14°C° 0,2 mm 4 m/s 749 mmHg 93%
    10:00 -12°C° 0,2 mm 3 m/s 749 mmHg 92%
    11:00 -12°C° 0,2 mm 3 m/s 749 mmHg 91%
    12:00 -10°C° 0,1 mm 3 m/s 748 mmHg 90%
    13:00 -10°C° 0,1 mm 3 m/s 748 mmHg 90%
    14:00 -9°C° 0,1 mm 3 m/s 748 mmHg 89%
    15:00 -9°C° 0,1 mm 3 m/s 748 mmHg 90%
    16:00 -9°C° 0,1 mm 3 m/s 748 mmHg 91%
    17:00 -9°C° 0,1 mm 3 m/s 747 mmHg 92%
    18:00 -9°C° 0 mm 3 m/s 747 mmHg 93%
    19:00 -9°C° 0 mm 2 m/s 747 mmHg 94%
    20:00 -9°C° 0 mm 2 m/s 747 mmHg 95%
    21:00 -9°C° 0,1 mm 2 m/s 747 mmHg 95%
    22:00 -9°C° 0,1 mm 2 m/s 747 mmHg 96%
    23:00 -9°C° 0,1 mm 2 m/s 746 mmHg 96%

    3 Martie, Sâmbătă

    Timp Temperatura Precipitaţii Vânt Presiune Umiditate
    00:00 -9°C° 0,1 mm 2 m/s 746 mmHg 96%
    01:00 -9°C° 0,1 mm 2 m/s 746 mmHg 96%
    02:00 -9°C° 0,1 mm 2 m/s 746 mmHg 96%
    03:00 -9°C° 0,1 mm 2 m/s 746 mmHg 96%
    04:00 -9°C° 0,1 mm 2 m/s 745 mmHg 96%
    05:00 -9°C° 0,1 mm 2 m/s 745 mmHg 96%
    06:00 -8°C° 0,1 mm 2 m/s 745 mmHg 96%
    07:00 -8°C° 0,1 mm 2 m/s 745 mmHg 96%
    08:00 -8°C° 0,1 mm 2 m/s 745 mmHg 96%
    09:00 -7°C° 0,1 mm 2 m/s 745 mmHg 94%
    10:00 -6°C° 0,1 mm 2 m/s 745 mmHg 93%
    11:00 -5°C° 0,1 mm 2 m/s 745 mmHg 91%
    12:00 -4°C° 0,1 mm 2 m/s 745 mmHg 90%
    13:00 -4°C° 0,1 mm 2 m/s 745 mmHg 89%
    14:00 -3°C° 0,1 mm 2 m/s 744 mmHg 87%
    15:00 -3°C° 0,1 mm 2 m/s 744 mmHg 89%
    16:00 -2°C° 0,1 mm 1 m/s 744 mmHg 90%
    17:00 -2°C° 0,1 mm 1 m/s 744 mmHg 91%
    18:00 -3°C° 0 mm 1 m/s 744 mmHg 92%
    19:00 -4°C° 0 mm 1 m/s 744 mmHg 93%
    20:00 -7°C° 0 mm 1 m/s 744 mmHg 94%
    21:00 -7°C° 0 mm 1 m/s 744 mmHg 95%
    22:00 -8°C° 0 mm 1 m/s 744 mmHg 95%
    23:00 -9°C° 0 mm 1 m/s 744 mmHg 95%
    Arată mai mult